Location: Newark
(44.6768°N, 22.5302°E)
Time: 02:58:40
(UTC+00:00)

CAS-6 - Pass Details

Date: 29 June 2022
Orbit: 613 x 634 km, 97.9° (Epoch: 13 August)

Event Time Altitude Azimuth Distance (km) Brightness Sun altitude
Exits shadow 19:24:23 - 104° (ESE) 2,161 ? -9.6°
Reaches altitude 10° 19:25:00 10° 98° (E) 2,005 ? -9.7°
Maximum altitude 19:27:31 15° 62° (ENE) 1,678 ? -10.0°
Drops below altitude 10° 19:30:03 10° 26° (NNE) 2,006 ? -10.3°
Sets 19:33:01 0° 4° (N) 2,913 ? -10.6°
